Station POTA2 - Potato Point, AK Image indicating link to RSS feed of recent meteorological observations for station POTA2


Conditions at POTA2 as of
(7:00 pm AKDT on 06/15/2024)
0300 GMT on 06/16/2024:
     

Click on the graph icon in the table below to see a time series plot of the last five days of that observation.

5-day plot - Wind Speed Wind Speed (WSPD): 0 kts
5-day plot - Wind Gust Wind Gust (GST): 1 kts
5-day plot - Atmospheric Pressure Atmospheric Pressure (PRES):30.10 in
5-day plot - Pressure Tendency Pressure Tendency (PTDY):+0.00 in ( Steady )
5-day plot - Air Temperature Air Temperature (ATMP): 57.6 °F
5-day plot - Wind Speed at 10 Meters Wind Speed at 10 meters (WSPD10M): 0 kts
5-day plot - Wind Speed at 20 Meters Wind Speed at 20 meters (WSPD20M): 0 kts
5-day plot -  Wind Speed, Wind Gust and Atmospheric Pressure Combined plot of Wind Speed, Gust, and Air Pressure
Continuous Winds
TIME
(AKDT)
5-day plot - Wind Direction WDIR 5-day plot - Wind Speed WSPD
7:00 pmWNW ( 285 deg ) 1 kts
6:50 pmW ( 270 deg ) 1 kts
6:40 pmWNW ( 287 deg ) 1 kts
6:30 pmWNW ( 282 deg ) 1 kts
6:20 pmWNW ( 290 deg ) 1 kts
6:10 pmWNW ( 288 deg ) 1 kts
 
Peak gust during the measurement hour
TIME
(AKDT)
5-day plot - Gust Direction GDR 5-day plot - Gust Speed GST
6:29 pmW ( 270 deg ) 3 kts
Previous observations
TIME
(AKDT)
5-day plot - Wind Direction
WDIR
 
5-day plot - Wind Speed
WSPD
kts
5-day plot - Wind Gust
GST
kts
5-day plot - Wave Height
WVHT
ft
5-day plot - Dominant Wave Period
DPD
sec
5-day plot - Average Wave Period
APD
sec
5-day plot - Mean Wave Direction
MWD
 
5-day plot - Atmospheric Pressure
PRES
in
5-day plot - Pressure Tendency
PTDY
in
5-day plot - Air Temperature
ATMP
°F
5-day plot - Water Temperature
WTMP
°F
5-day plot - Dew Point
DEWP
°F
5-day plot - Salinity
SAL
psu
5-day plot - Visibility
VIS
nmi
5-day plot - Tide (above MLLW)
TIDE
ft
2024-06-15 06:30 pmWNW 1 3----30.10- 58.3-----
2024-06-15 06:00 pm- 0 2----30.10- 59.7-----
2024-06-15 05:30 pm- 0 2----30.10- 60.6-----
2024-06-15 05:00 pm W 1 2----30.09+0.01 60.6-----
2024-06-15 04:30 pm W 1 2----30.10- 61.5-----
2024-06-15 04:00 pmWNW 1 2----30.10+0.02 61.5-----
2024-06-15 03:30 pmWNW 1 2----30.09- 61.3-----
2024-06-15 02:30 pmWNW 1 2----30.09- 61.0-----
2024-06-15 02:00 pmWNW 1 2----30.08+0.00 61.7-----
2024-06-15 01:30 pm- 0 2----30.08- 60.8-----
2024-06-15 01:00 pm W 1 2----30.08+0.00 61.2-----
2024-06-15 12:30 pm W 1 2----30.07- 61.2-----
2024-06-15 12:00 pm- 0 1----30.08+0.00 60.8-----
2024-06-15 11:30 am- 0 1----30.07- 60.8-----
2024-06-15 11:00 am- 0 1----30.07+0.00 61.7-----
2024-06-15 10:30 am- 0 1----30.07- 60.1-----
2024-06-15 10:00 am- 0 2----30.08+0.00 59.4-----
2024-06-15 09:30 am- 0 1----30.08- 59.5-----
2024-06-15 09:00 am SW 2 3----30.08+0.00 56.3-----
2024-06-15 08:30 am- 0 1----30.08- 55.4-----
2024-06-15 08:00 am- 0 1----30.07+0.00 55.0-----
2024-06-15 07:30 am- 0 1----30.08- 54.1-----
2024-06-15 07:00 am- 0 3----30.08+0.02 52.9-----
2024-06-15 06:30 am- 0 1----30.08- 51.8-----
2024-06-15 06:00 am- 0 2----30.07+0.03 53.1-----
2024-06-15 05:30 amWSW 2 3----30.07- 52.7-----
2024-06-15 05:00 am- 0 2----30.07+0.03 51.8-----
2024-06-15 04:30 amESE 2 3----30.06- 51.8-----
2024-06-15 04:00 am S 1 4----30.06+0.03 52.7-----
2024-06-15 03:30 am S 2 4----30.05- 53.6-----
2024-06-15 03:00 amSSE 2 3----30.05+0.04 53.2-----
2024-06-15 02:30 amSSE 4 7----30.04- 52.9-----
2024-06-15 02:00 amSSE 6 9----30.04+0.06 54.5-----
2024-06-15 01:30 am S 4 6----30.03- 54.0-----
2024-06-15 01:00 am S 1 3----30.02+0.06 54.5-----
2024-06-15 12:30 amSSW 1 2----30.01- 55.8-----
2024-06-15 12:00 amSSW 2 3----30.00+0.05 56.8-----
2024-06-14 11:30 pm- 0 2----29.99- 57.2-----
2024-06-14 11:00 pmNNE 1 2----29.98+0.04 58.6-----
2024-06-14 10:30 pmNNE 3 3----29.98- 59.0-----
2024-06-14 10:00 pmWNW 1 2----29.96+0.02 59.7-----
2024-06-14 09:30 pm- 0 2----29.96- 62.8-----
2024-06-14 09:00 pm- 0 1----29.95+0.00 62.6-----
2024-06-14 08:30 pm- 0 1----29.94- 61.7-----
2024-06-14 08:00 pm- 0 0----29.94+0.00 60.8-----
2024-06-14 07:30 pmNNE 2 3----29.94- 66.0-----
2024-06-14 07:00 pm- 0 1----29.94+0.00 60.3-----